User: anonymous   Login
Location: Alsip
(41.6689°N, 87.7387°W)
Time: 23:22:44
(UTC+00:00)
Language:

Cosmos 1833 Rocket - Orbit

View from above orbital plane
View from above orbital plane
View from above satellite
View from above satellite

Ground track
Ground track

The orbit data is extracted from the following two-line orbital elements,

1 17590U 87027B   21167.57704924  .00000155  00000-0  10131-3 0  9991
2 17590  71.0033 314.5790 0006982 246.0522 113.9871 14.16800253770737
Epoch (UTC): 16 June 2021 13:50:57
Eccentricity: 0.0006982
inclination: 71.0033°
perigee height: 831 km
apogee height: 841 km
right ascension of ascending node: 314.5790°
argument of perigee: 246.0522°
revolutions per day: 14.16800253
mean anomaly at epoch: 113.9871°
orbit number at epoch: 77073

The dashed part of the orbit path shows where the satellite is in the earth's shadow,  

DLR